sat.trackr.live / text

‹ back to catalog

STARLINK-32288

NORAD 60943 · 2024-155V

PAYLOAD ACTIVE UNKNOWN

§ Identity

Operator
Country
US
Launch date
2024-08-31
Launch site
AFWTR
Launch vehicle
Mass (kg)
RCS (m²)

Purposes: comms

External: N2YO · Heavens-Above · Gunter

§ Orbital elements

Epoch: 2026-09-21T11:18:30.482496Z

Period
93.85 min
Inclination
53.1601°
Eccentricity
0.0001139
Mean motion
15.34387145 rev/d
Perigee alt
462.0 km
Apogee alt
463.5 km
Semi-major
6,840.9 km
B*
4.8168e-6
RAAN
296.8957°
Arg perigee
79.3530°
Mean anomaly
280.7601°
Rev number
11,631

§ Raw data

STARLINK-322881 60943U 24155V   26264.47118614 -.00000213  00000+0  48168-5 0  99992 60943  53.1601 296.8957 0001139  79.3530 280.7601 15.34387145116314

JSON: /api/v1/satellites/60943 · /tle

For live sub-satellite position, see the globe view (requires WebGL).

§ Visibility from observer

Set your observer location to see the next 7 days of passes ≥ 10°. The values pass through the URL so the page stays shareable.

No JS? Fill the form by hand. The geolocation button needs JavaScript.